When you browse on this site, cookies collect data to enhance your experience and personalize the content and advertising you see.
Visit our Privacy Policy to learn more. By continuing to use the site, you agree to this use of cookies and data.
EN

Hourly Weather Novoe Rozhnovo

Today, 23 September, Wednesday

Time Temperature Precipitation Wind Pressure Humidity
00:00 +12°C° 0 mm 2 mps 741 mmHg 93%
01:00 +10°C° 0 mm 2 mps 741 mmHg 94%
02:00 +10°C° 0 mm 2 mps 742 mmHg 94%
03:00 +10°C° 0 mm 2 mps 742 mmHg 94%
04:00 +10°C° 0 mm 2 mps 742 mmHg 95%
05:00 +9°C° 0 mm 2 mps 742 mmHg 95%
06:00 +12°C° 0 mm 2 mps 742 mmHg 91%
07:00 +13°C° 0 mm 2 mps 742 mmHg 87%
08:00 +14°C° 0 mm 2 mps 742 mmHg 82%
09:00 +16°C° 0 mm 2 mps 742 mmHg 77%
10:00 +18°C° 0 mm 2 mps 742 mmHg 72%
11:00 +19°C° 0 mm 3 mps 742 mmHg 66%
12:00 +20°C° 0 mm 3 mps 742 mmHg 64%
13:00 +21°C° 0 mm 3 mps 742 mmHg 62%
14:00 +23°C° 0 mm 2 mps 742 mmHg 62%
15:00 +21°C° 0 mm 2 mps 742 mmHg 68%
16:00 +20°C° 0 mm 2 mps 741 mmHg 73%
17:00 +18°C° 0 mm 2 mps 741 mmHg 79%
18:00 +17°C° 0 mm 2 mps 741 mmHg 82%
19:00 +16°C° 0 mm 2 mps 741 mmHg 86%
20:00 +15°C° 0 mm 2 mps 742 mmHg 89%
21:00 +14°C° 0 mm 2 mps 741 mmHg 89%
22:00 +14°C° 0 mm 2 mps 741 mmHg 88%
23:00 +13°C° 0 mm 2 mps 741 mmHg 88%

Tomorrow, 24 September, Thursday

Time Temperature Precipitation Wind Pressure Humidity
00:00 +13°C° 0 mm 2 mps 742 mmHg 87%
01:00 +12°C° 0 mm 2 mps 742 mmHg 86%
02:00 +12°C° 0 mm 2 mps 742 mmHg 85%
03:00 +12°C° 0 mm 2 mps 742 mmHg 84%
04:00 +10°C° 0 mm 2 mps 742 mmHg 84%
05:00 +10°C° 0 mm 2 mps 742 mmHg 83%
06:00 +12°C° 0 mm 2 mps 742 mmHg 79%
07:00 +13°C° 0 mm 2 mps 742 mmHg 76%
08:00 +14°C° 0 mm 2 mps 742 mmHg 72%
09:00 +15°C° 0 mm 2 mps 742 mmHg 68%
10:00 +17°C° 0 mm 2 mps 742 mmHg 64%
11:00 +19°C° 0 mm 2 mps 742 mmHg 60%
12:00 +19°C° 0 mm 2 mps 742 mmHg 58%
13:00 +20°C° 0 mm 2 mps 742 mmHg 56%
14:00 +20°C° 0 mm 2 mps 742 mmHg 54%
15:00 +19°C° 0 mm 2 mps 742 mmHg 61%
16:00 +18°C° 0 mm 2 mps 742 mmHg 67%
17:00 +16°C° 0 mm 2 mps 742 mmHg 74%
18:00 +15°C° 0 mm 2 mps 742 mmHg 76%
19:00 +14°C° 0 mm 2 mps 742 mmHg 79%
20:00 +13°C° 0 mm 2 mps 742 mmHg 81%
21:00 +13°C° 0 mm 2 mps 742 mmHg 81%
22:00 +12°C° 0 mm 2 mps 742 mmHg 80%
23:00 +12°C° 0 mm 2 mps 742 mmHg 80%

Day after tomorrow, 25 September, Friday

Time Temperature Precipitation Wind Pressure Humidity
00:00 +12°C° 0 mm 2 mps 743 mmHg 80%
01:00 +12°C° 0 mm 2 mps 743 mmHg 81%
02:00 +10°C° 0 mm 2 mps 743 mmHg 81%
03:00 +10°C° 0 mm 2 mps 743 mmHg 82%
04:00 +10°C° 0 mm 2 mps 742 mmHg 82%
05:00 +9°C° 0 mm 2 mps 742 mmHg 83%
06:00 +10°C° 0 mm 3 mps 742 mmHg 79%
07:00 +12°C° 0 mm 3 mps 742 mmHg 74%
08:00 +13°C° 0 mm 3 mps 742 mmHg 70%
09:00 +14°C° 0 mm 3 mps 742 mmHg 67%
10:00 +17°C° 0 mm 3 mps 742 mmHg 64%
11:00 +18°C° 0 mm 3 mps 742 mmHg 61%
12:00 +19°C° 0 mm 4 mps 742 mmHg 60%
13:00 +20°C° 0 mm 4 mps 742 mmHg 59%
14:00 +20°C° 0 mm 4 mps 742 mmHg 58%
15:00 +19°C° 0 mm 4 mps 741 mmHg 63%
16:00 +18°C° 0 mm 4 mps 741 mmHg 68%
17:00 +17°C° 0 mm 3 mps 741 mmHg 72%
18:00 +16°C° 0 mm 3 mps 741 mmHg 74%
19:00 +14°C° 0 mm 3 mps 741 mmHg 76%
20:00 +14°C° 0 mm 3 mps 741 mmHg 77%
21:00 +13°C° 0 mm 3 mps 741 mmHg 76%
22:00 +13°C° 0 mm 3 mps 741 mmHg 76%
23:00 +13°C° 0 mm 3 mps 741 mmHg 75%

26 September, Saturday

Time Temperature Precipitation Wind Pressure Humidity
00:00 +12°C° 0 mm 3 mps 741 mmHg 75%
01:00 +12°C° 0 mm 3 mps 741 mmHg 75%
02:00 +12°C° 0 mm 3 mps 741 mmHg 75%
03:00 +12°C° 0 mm 3 mps 741 mmHg 76%
04:00 +11°C° 0 mm 3 mps 741 mmHg 76%
05:00 +11°C° 0 mm 3 mps 741 mmHg 77%
06:00 +12°C° 0 mm 3 mps 741 mmHg 75%
07:00 +13°C° 0 mm 4 mps 741 mmHg 73%
08:00 +13°C° 0 mm 4 mps 741 mmHg 70%
09:00 +15°C° 0 mm 4 mps 742 mmHg 66%
10:00 +18°C° 0 mm 4 mps 742 mmHg 62%
11:00 +19°C° 0 mm 4 mps 742 mmHg 58%
12:00 +20°C° 0 mm 5 mps 742 mmHg 56%
13:00 +21°C° 0 mm 5 mps 743 mmHg 54%
14:00 +21°C° 0 mm 5 mps 743 mmHg 53%
15:00 +20°C° 0 mm 4 mps 743 mmHg 58%
16:00 +19°C° 0 mm 4 mps 742 mmHg 63%
17:00 +18°C° 0 mm 3 mps 742 mmHg 69%
18:00 +17°C° 0 mm 4 mps 743 mmHg 70%
19:00 +15°C° 0 mm 4 mps 743 mmHg 71%
20:00 +14°C° 0 mm 4 mps 743 mmHg 73%
21:00 +14°C° 0 mm 4 mps 743 mmHg 73%
22:00 +13°C° 0 mm 4 mps 743 mmHg 73%
23:00 +12°C° 0 mm 4 mps 743 mmHg 74%

27 September, Sunday

Time Temperature Precipitation Wind Pressure Humidity
00:00 +12°C° 0 mm 4 mps 743 mmHg 75%
01:00 +12°C° 0 mm 4 mps 743 mmHg 75%
02:00 +11°C° 0 mm 4 mps 743 mmHg 76%
03:00 +11°C° 0 mm 4 mps 743 mmHg 77%
04:00 +11°C° 0 mm 4 mps 743 mmHg 77%
05:00 +11°C° 0 mm 4 mps 743 mmHg 78%
06:00 +12°C° 0 mm 4 mps 743 mmHg 74%
07:00 +13°C° 0 mm 4 mps 743 mmHg 71%
08:00 +14°C° 0 mm 5 mps 743 mmHg 67%
09:00 +15°C° 0 mm 5 mps 743 mmHg 61%
10:00 +16°C° 0 mm 5 mps 744 mmHg 55%
11:00 +19°C° 0 mm 5 mps 744 mmHg 50%
12:00 +19°C° 0 mm 5 mps 744 mmHg 48%
13:00 +20°C° 0 mm 6 mps 744 mmHg 47%
14:00 +20°C° 0 mm 6 mps 743 mmHg 46%
15:00 +17°C° 0 mm 5 mps 743 mmHg 49%
16:00 +16°C° 0 mm 5 mps 743 mmHg 53%
17:00 +15°C° 0 mm 5 mps 743 mmHg 56%
18:00 +14°C° 0 mm 5 mps 743 mmHg 57%
19:00 +13°C° 0 mm 5 mps 743 mmHg 58%
20:00 +12°C° 0 mm 5 mps 743 mmHg 58%
21:00 +12°C° 0 mm 5 mps 743 mmHg 58%
22:00 +12°C° 0 mm 5 mps 743 mmHg 59%
23:00 +10°C° 0 mm 5 mps 743 mmHg 59%

28 September, Monday

Time Temperature Precipitation Wind Pressure Humidity
00:00 +10°C° 0 mm 5 mps 743 mmHg 59%
01:00 +9°C° 0 mm 5 mps 743 mmHg 60%
02:00 +9°C° 0 mm 5 mps 743 mmHg 60%
03:00 +9°C° 0 mm 5 mps 743 mmHg 59%
04:00 +9°C° 0 mm 5 mps 743 mmHg 58%
05:00 +9°C° 0 mm 5 mps 743 mmHg 57%
06:00 +9°C° 0 mm 5 mps 743 mmHg 56%
07:00 +9°C° 0 mm 5 mps 743 mmHg 56%
08:00 +10°C° 0 mm 5 mps 743 mmHg 56%
09:00 +10°C° 0 mm 5 mps 743 mmHg 56%
10:00 +12°C° 0 mm 5 mps 743 mmHg 55%
11:00 +13°C° 0 mm 5 mps 744 mmHg 55%
12:00 +12°C° 0 mm 5 mps 744 mmHg 62%
13:00 +10°C° 0 mm 5 mps 744 mmHg 69%
14:00 +9°C° 0 mm 5 mps 744 mmHg 76%
15:00 +9°C° 0.2 mm 5 mps 744 mmHg 80%
16:00 +8°C° 0.2 mm 5 mps 744 mmHg 84%
17:00 +8°C° 0.2 mm 5 mps 744 mmHg 87%
18:00 +8°C° 0 mm 5 mps 744 mmHg 88%
19:00 +9°C° 0 mm 5 mps 744 mmHg 89%
20:00 +10°C° 0 mm 4 mps 745 mmHg 89%
21:00 +10°C° 0 mm 4 mps 745 mmHg 90%
22:00 +8°C° 0 mm 4 mps 745 mmHg 90%
23:00 +9°C° 0 mm 3 mps 745 mmHg 91%
Show more